Regional Weather Roundup
Issued by NWS Little Rock, AR

Home | Current Version | Previous Version | Graphics & Text | Print | Product List | Glossary On
Versions: 1 2 3 4 5 6 7 8 9 10 11 12 13 14 15 16 17 18 19 20 21 22 23 24 25 26 27 28 29 30 31
000
ASUS44 KLZK 191505
RWRLZK

WEATHER ROUNDUP FOR ARKANSAS
NATIONAL WEATHER SERVICE LITTLE ROCK AR
1000 AM CDT TUE SEP 19 2017

NOTE: "FAIR" INDICATES FEW OR NO CLOUDS BELOW 12,000 FEET WITH NO
SIGNIFICANT WEATHER AND/OR OBSTRUCTIONS TO VISIBILITY.

ARZ001-003-010-029-191600-
NORTHWEST ARKANSAS

CITY           SKY/WX    TMP DP  RH WIND       PRES   REMARKS
FAYETTEVILLE   SUNNY     76  71  85 VRB3      29.98R
FORT SMITH     SUNNY     79  70  74 NE5       29.94R
HARRISON       SUNNY     76  68  76 SE7       29.99S
BENTONVILLE    SUNNY     76  68  76 SW9       30.00R
ROGERS         SUNNY     79  69  71 SW8       29.99R
SILOAM SPGS    MOSUNNY   78  70  76 SW8       29.98R
HIGHFILL       MOSUNNY   77  69  76 S7        29.98R
SPRINGDALE     MOSUNNY   77  70  78 S5        29.99R
$$

ARZ004-005-016-191600-
NORTH CENTRAL ARKANSAS

CITY           SKY/WX    TMP DP  RH WIND       PRES   REMARKS
BATESVILLE     SUNNY    N/A N/A N/A CALM      29.99R
FLIPPIN        CLOUDY    69  68  96 CALM      29.99R
MTN HOME       SUNNY     76  72  87 S3        29.98R
$$

ARZ040-041-191600-
WEST CENTRAL ARKANSAS

CITY           SKY/WX    TMP DP  RH WIND       PRES   REMARKS
MENA           SUNNY     81  75  83 CALM      29.98S HX  86
MOUNT IDA      SUNNY     81  68  64 CALM      29.96S
$$

ARZ009-017-025-026-028-191600-
NORTHEAST ARKANSAS

CITY           SKY/WX    TMP DP  RH WIND       PRES   REMARKS
CORNING        FAIR      75  75 100 CALM      29.97S
JONESBORO      MOSUNNY   78  76  93 S6        29.97R
NEWPORT        CLOUDY    72  72 100 SW6       29.98R FOG
BLYTHEVILLE    SUNNY     79  75  87 S6        29.98R
NW BLYTHEVILLE SUNNY     81  73  78 SW7       29.98R HX  85
$$

ARZ022-023-033-042-044-191600-
CENTRAL ARKANSAS

CITY           SKY/WX    TMP DP  RH WIND       PRES   REMARKS
LITTLE ROCK    SUNNY     80  74  81 VRB3      29.98R HX  85
N LITTLE ROCK    N/A     80  72  75 SW5       29.98R
JACKSONVILLE   SUNNY     81  73  76 SW5       29.98R HX  86
CONWAY           N/A     81  73  78 S3        29.96R HX  85
SEARCY         SUNNY     78  75  90 S7        30.00R
HOT SPRINGS    MOSUNNY   81  73  76 VRB5      29.99R HX  86
RUSSELLVILLE   SUNNY     80  70  71 S3        29.96S
CLINTON        FAIR      73  70  88 CALM      29.99S FOG
$$

ARZ036-191600-
EAST ARKANSAS

CITY           SKY/WX    TMP DP  RH WIND       PRES   REMARKS
WEST MEMPHIS   SUNNY     80  75  84 S7        29.98R HX  85
$$

ARZ050-053-066-070-073-191600-
SOUTHWEST ARKANSAS

CITY           SKY/WX    TMP DP  RH WIND       PRES   REMARKS
ARKADELPHIA    FAIR      78  73  84 CALM      29.99R
CAMDEN         SUNNY     82  72  69 CALM      29.99R HX  87
TEXARKANA      MOSUNNY   79  73  82 SW8       29.98R
EL DORADO      SUNNY     81  74  79 SW7       30.00R HX  86
$$

ARZ056-057-069-191600-
SOUTHEAST ARKANSAS

CITY           SKY/WX    TMP DP  RH WIND       PRES   REMARKS
PINE BLUFF     SUNNY     81  72  74 SW9       29.99R HX  85
STUTTGART      SUNNY     81  74  79 SW9       29.99R HX  86
MONTICELLO     MOSUNNY   82  74  76 W7        30.00R HX  88

$$






USA.gov is the U.S. government's official web portal to all federal, state and local government web resources and services.